Location: Ettringen
(48.1054°N, 10.6545°E)
Time: 13:03:22
(UTC+00:00)

Spot 4 Rocket - Visible Passes

Search period start: 14 February 2026 00:00
Search period end: 24 February 2026 00:00
Orbit: 768 x 774 km, 98.8° (Epoch: 13 February)

Date Brightness Start Highest point End Pass type
(mag) Time Alt. Az. Time Alt. Az. Time Alt. Az.
14 Feb 7.6 05:23:21 10° ENE 05:24:40 11° E 05:25:58 10° E visible
14 Feb 4.9 18:18:29 10° S 18:23:26 51° W 18:28:25 10° NNW visible
15 Feb 4.0 17:43:10 10° SSE 17:48:17 82° ENE 17:53:25 10° NNW visible
15 Feb 7.0 19:25:08 10° WSW 19:27:59 15° W 19:30:51 10° NW visible
16 Feb 7.0 05:50:15 10° NE 05:53:56 20° E 05:57:37 10° SE visible
16 Feb 4.4 17:08:32 10° SE 17:13:18 42° ENE 17:18:06 10° N visible
16 Feb 6.0 18:48:04 10° SSW 18:52:29 29° W 18:56:56 10° NW visible
17 Feb 4.7 18:12:10 10° S 18:17:12 58° W 18:22:14 10° NNW visible
18 Feb 4.0 17:36:59 10° SSE 17:42:04 72° ENE 17:47:10 10° N visible
18 Feb 6.8 19:18:23 10° SW 19:21:40 17° W 19:24:58 10° NW visible
19 Feb 7.1 05:44:17 10° NE 05:47:38 17° E 05:50:58 10° SE visible
19 Feb 5.7 18:41:37 10° SSW 18:46:13 33° W 18:50:49 10° NNW visible
20 Feb 4.4 18:05:52 10° S 18:10:56 67° WSW 18:16:02 10° NNW visible
21 Feb 4.0 17:30:49 10° SSE 17:35:50 63° ENE 17:40:54 10° N visible
21 Feb 6.6 19:11:43 10° SW 19:15:21 19° W 19:18:59 10° NW visible
22 Feb 7.2 05:38:22 10° NE 05:41:18 15° E 05:44:13 10° SE visible
22 Feb 5.5 18:35:12 10° SSW 18:39:55 38° W 18:44:40 10° NNW visible
23 Feb 4.2 17:59:35 10° S 18:04:41 76° WSW 18:09:48 10° NNW visible
23 Feb 7.2 19:43:30 10° W 19:44:37 11° W 19:45:43 10° WNW visible
